When you browse on this site, cookies collect data to enhance your experience and personalize the content and advertising you see.
Visit our Privacy Policy to learn more. By continuing to use the site, you agree to this use of cookies and data.
  • In Romania
  • List of Countries
  • For 7 days
  • Water Temperature
  • Satellite Maps
  • Weather Map
  • Weather Widgets
  • user-avatar
    Login

    Hourly Weather Kumagorsk

    Today, 21 March, Thursday

    Time Temperature Precipitation Wind Pressure Humidity
    00:00 +5°C° 0 mm 2 mps 733 mmHg 84%
    01:00 +4°C° 0 mm 2 mps 733 mmHg 85%
    02:00 +4°C° 0 mm 2 mps 733 mmHg 86%
    03:00 +3°C° 0 mm 3 mps 732 mmHg 85%
    04:00 +3°C° 0 mm 2 mps 732 mmHg 85%
    05:00 +3°C° 0 mm 2 mps 732 mmHg 86%
    06:00 +4°C° 0 mm 1 mps 733 mmHg 86%
    07:00 +6°C° 0 mm 1 mps 733 mmHg 79%
    08:00 +7°C° 0 mm 1 mps 733 mmHg 71%
    09:00 +9°C° 0 mm 1 mps 733 mmHg 64%
    10:00 +10°C° 0 mm 2 mps 733 mmHg 60%
    11:00 +12°C° 0 mm 2 mps 733 mmHg 56%
    12:00 +13°C° 0 mm 3 mps 733 mmHg 52%
    13:00 +13°C° 0 mm 3 mps 732 mmHg 50%
    14:00 +14°C° 0 mm 4 mps 732 mmHg 48%
    15:00 +14°C° 0 mm 4 mps 732 mmHg 46%
    16:00 +13°C° 0 mm 4 mps 732 mmHg 50%
    17:00 +12°C° 0 mm 4 mps 732 mmHg 54%
    18:00 +12°C° 0 mm 4 mps 732 mmHg 57%
    19:00 +11°C° 0 mm 4 mps 732 mmHg 62%
    20:00 +10°C° 0 mm 4 mps 732 mmHg 66%
    21:00 +8°C° 0 mm 4 mps 733 mmHg 70%
    22:00 +8°C° 0 mm 4 mps 733 mmHg 71%
    23:00 +7°C° 0 mm 4 mps 733 mmHg 72%

    Tomorrow, 22 March, Friday

    Time Temperature Precipitation Wind Pressure Humidity
    00:00 +7°C° 0 mm 4 mps 733 mmHg 73%
    01:00 +6°C° 0 mm 4 mps 733 mmHg 74%
    02:00 +6°C° 0 mm 5 mps 733 mmHg 76%
    03:00 +5°C° 0 mm 5 mps 733 mmHg 77%
    04:00 +5°C° 0.1 mm 5 mps 733 mmHg 78%
    05:00 +5°C° 0.1 mm 5 mps 733 mmHg 78%
    06:00 +4°C° 0.1 mm 6 mps 733 mmHg 79%
    07:00 +4°C° 0.1 mm 6 mps 733 mmHg 74%
    08:00 +4°C° 0.1 mm 6 mps 733 mmHg 69%
    09:00 +4°C° 0.1 mm 6 mps 733 mmHg 64%
    10:00 +5°C° 0.3 mm 6 mps 733 mmHg 63%
    11:00 +5°C° 0.3 mm 6 mps 732 mmHg 61%
    12:00 +5°C° 0.3 mm 6 mps 732 mmHg 59%
    13:00 +7°C° 0.2 mm 6 mps 732 mmHg 56%
    14:00 +7°C° 0.2 mm 6 mps 732 mmHg 52%
    15:00 +8°C° 0.2 mm 7 mps 731 mmHg 49%
    16:00 +8°C° 0 mm 6 mps 731 mmHg 51%
    17:00 +7°C° 0 mm 5 mps 731 mmHg 54%
    18:00 +7°C° 0 mm 4 mps 731 mmHg 57%
    19:00 +7°C° 0 mm 3 mps 731 mmHg 60%
    20:00 +5°C° 0 mm 3 mps 731 mmHg 64%
    21:00 +5°C° 0 mm 2 mps 731 mmHg 68%
    22:00 +5°C° 0 mm 2 mps 731 mmHg 71%
    23:00 +5°C° 0 mm 2 mps 731 mmHg 74%

    Day after tomorrow, 23 March, Saturday

    Time Temperature Precipitation Wind Pressure Humidity
    00:00 +4°C° 0 mm 2 mps 730 mmHg 77%
    01:00 +4°C° 0 mm 2 mps 730 mmHg 78%
    02:00 +4°C° 0 mm 2 mps 729 mmHg 80%
    03:00 +4°C° 0 mm 2 mps 728 mmHg 81%
    04:00 +4°C° 0 mm 2 mps 728 mmHg 80%
    05:00 +4°C° 0 mm 2 mps 727 mmHg 79%
    06:00 +4°C° 0 mm 2 mps 727 mmHg 78%
    07:00 +5°C° 0 mm 2 mps 727 mmHg 74%
    08:00 +5°C° 0 mm 3 mps 727 mmHg 69%
    09:00 +7°C° 0 mm 3 mps 727 mmHg 65%
    10:00 +8°C° 0 mm 3 mps 726 mmHg 61%
    11:00 +9°C° 0 mm 3 mps 726 mmHg 58%
    12:00 +10°C° 0 mm 3 mps 726 mmHg 54%
    13:00 +9°C° 0.4 mm 3 mps 726 mmHg 58%
    14:00 +8°C° 0.4 mm 4 mps 725 mmHg 62%
    15:00 +7°C° 0.4 mm 4 mps 725 mmHg 66%
    16:00 +5°C° 2.8 mm 4 mps 725 mmHg 73%
    17:00 +3°C° 2.8 mm 4 mps 726 mmHg 80%
    18:00 +1°C° 2.8 mm 5 mps 726 mmHg 87%
    19:00 0°C° 1.1 mm 4 mps 727 mmHg 89%
    20:00 +1°C° 1.1 mm 3 mps 727 mmHg 92%
    21:00 +2°C° 1.1 mm 2 mps 728 mmHg 94%
    22:00 +1°C° 0.6 mm 2 mps 728 mmHg 95%
    23:00 +1°C° 0.6 mm 2 mps 728 mmHg 96%

    24 March, Sunday

    Time Temperature Precipitation Wind Pressure Humidity
    00:00 +2°C° 0.6 mm 1 mps 728 mmHg 97%
    01:00 +2°C° 0.4 mm 1 mps 728 mmHg 96%
    02:00 +2°C° 0.4 mm 1 mps 729 mmHg 96%
    03:00 +1°C° 0.4 mm 1 mps 729 mmHg 95%
    04:00 +1°C° 0.2 mm 1 mps 729 mmHg 95%
    05:00 +1°C° 0.2 mm 1 mps 729 mmHg 95%
    06:00 +1°C° 0.2 mm 1 mps 730 mmHg 95%
    07:00 +1°C° 0.1 mm 1 mps 730 mmHg 95%
    08:00 +1°C° 0.1 mm 2 mps 730 mmHg 94%
    09:00 +1°C° 0.1 mm 2 mps 730 mmHg 94%
    10:00 +2°C° 0.1 mm 2 mps 730 mmHg 90%
    11:00 +2°C° 0.1 mm 2 mps 730 mmHg 86%
    12:00 +3°C° 0.1 mm 2 mps 730 mmHg 82%
    13:00 +3°C° 0 mm 2 mps 730 mmHg 75%
    14:00 +4°C° 0 mm 2 mps 729 mmHg 69%
    15:00 +5°C° 0 mm 2 mps 729 mmHg 63%
    16:00 +4°C° 0 mm 2 mps 729 mmHg 65%
    17:00 +4°C° 0 mm 2 mps 730 mmHg 67%
    18:00 +4°C° 0 mm 2 mps 730 mmHg 69%
    19:00 +3°C° 0 mm 2 mps 730 mmHg 71%
    20:00 +2°C° 0 mm 2 mps 731 mmHg 72%
    21:00 +2°C° 0 mm 2 mps 731 mmHg 73%
    22:00 0°C° 0 mm 3 mps 731 mmHg 74%
    23:00 0°C° 0 mm 3 mps 731 mmHg 74%

    25 March, Monday

    Time Temperature Precipitation Wind Pressure Humidity
    00:00 -1°C° 0 mm 3 mps 731 mmHg 75%
    01:00 -1°C° 0 mm 3 mps 731 mmHg 75%
    02:00 -1°C° 0 mm 3 mps 731 mmHg 75%
    03:00 -1°C° 0 mm 2 mps 731 mmHg 75%
    04:00 -1°C° 0 mm 2 mps 731 mmHg 75%
    05:00 -1°C° 0 mm 2 mps 731 mmHg 74%
    06:00 -2°C° 0 mm 2 mps 731 mmHg 74%
    07:00 +1°C° 0 mm 2 mps 731 mmHg 69%
    08:00 +1°C° 0 mm 3 mps 731 mmHg 63%
    09:00 +3°C° 0 mm 3 mps 731 mmHg 58%
    10:00 +4°C° 0 mm 3 mps 731 mmHg 55%
    11:00 +5°C° 0 mm 3 mps 731 mmHg 52%
    12:00 +7°C° 0 mm 3 mps 730 mmHg 49%
    13:00 +7°C° 0 mm 3 mps 730 mmHg 48%
    14:00 +7°C° 0 mm 4 mps 730 mmHg 48%
    15:00 +7°C° 0 mm 4 mps 730 mmHg 47%
    16:00 +8°C° 0 mm 3 mps 730 mmHg 53%
    17:00 +7°C° 0 mm 3 mps 730 mmHg 58%
    18:00 +6°C° 0 mm 2 mps 730 mmHg 63%
    19:00 +5°C° 0 mm 2 mps 730 mmHg 67%
    20:00 +6°C° 0 mm 1 mps 730 mmHg 71%
    21:00 +4°C° 0 mm 0 mps 731 mmHg 74%
    22:00 +5°C° 0 mm 1 mps 730 mmHg 75%
    23:00 +4°C° 0 mm 1 mps 730 mmHg 76%

    26 March, Tuesday

    Time Temperature Precipitation Wind Pressure Humidity
    00:00 +4°C° 0 mm 1 mps 730 mmHg 77%
    01:00 +3°C° 0 mm 1 mps 730 mmHg 77%
    02:00 +3°C° 0 mm 1 mps 729 mmHg 77%
    03:00 +2°C° 0 mm 0 mps 729 mmHg 77%
    04:00 +3°C° 0 mm 1 mps 729 mmHg 77%
    05:00 +2°C° 0 mm 1 mps 729 mmHg 77%
    06:00 +2°C° 0 mm 1 mps 729 mmHg 78%
    07:00 +3°C° 0 mm 2 mps 729 mmHg 71%
    08:00 +3°C° 0 mm 4 mps 728 mmHg 64%
    09:00 +5°C° 0 mm 5 mps 728 mmHg 57%
    10:00 +6°C° 0 mm 5 mps 728 mmHg 54%
    11:00 +7°C° 0 mm 5 mps 727 mmHg 52%
    12:00 +8°C° 0 mm 6 mps 727 mmHg 49%
    13:00 +9°C° 0 mm 6 mps 726 mmHg 49%
    14:00 +10°C° 0 mm 6 mps 726 mmHg 48%
    15:00 +10°C° 0 mm 6 mps 726 mmHg 48%
    16:00 +9°C° 0 mm 5 mps 726 mmHg 51%
    17:00 +9°C° 0 mm 5 mps 726 mmHg 54%
    18:00 +8°C° 0 mm 4 mps 726 mmHg 58%
    19:00 +7°C° 0 mm 4 mps 726 mmHg 61%
    20:00 +6°C° 0 mm 4 mps 727 mmHg 64%
    21:00 +5°C° 0 mm 4 mps 727 mmHg 67%
    22:00 +4°C° 0 mm 4 mps 727 mmHg 69%
    23:00 +4°C° 0 mm 3 mps 727 mmHg 71%
    Show more